Regional Weather Roundup
Issued by NWS

Home | Current Version | Previous Version | Text Only | Print | Product List | Glossary On
Versions: 1 2 3 4 5 6 7 8 9 10 11 12 13 14 15 16 17 18 19 20 21 22 23 24 25 26 27 28 29 30 31 32 33 34 35 36 37 38 39 40 41 42 43 44 45 46 47 48 49 50
000
ASUS43 KDMX 010207
RWRIA

WEATHER ROUNDUP FOR IOWA
NATIONAL WEATHER SERVICE DES MOINES IA
900 PM CDT THU JUL 31 2014

NOTE: "FAIR" INDICATES FEW OR NO CLOUDS BELOW 12,000 FEET WITH NO
SIGNIFICANT WEATHER AND/OR OBSTRUCTIONS TO VISIBILITY.

* - THESE STATIONS ARE NOT NWS STATIONS...THUS NOT UNDER NWS
QUALITY CONTROL.  THEY ALSO DO NOT REPORT WEATHER SUCH
AS PRECIPITATION OR FOG.

IAZ001>003-012>014-020>022-031>034-043>046-010300-
   NORTHWEST IOWA

CITY           SKY/WX    TMP DP  RH WIND       PRES   REMARKS
CARROLL *      PTCLDY    64  63  94 CALM      30.04S
CHEROKEE *     CLEAR     65  61  87 CALM      30.04S
DENISON *      MOCLDY    66  64  94 CALM      30.03S
LE MARS *      CLEAR     68  63  83 CALM      30.05R
ORANGE CITY *  PTCLDY    70  61  73 CALM      30.05S
SHELDON *      CLEAR     68  61  77 SW5       30.04S
SIOUX CITY     PTCLDY    68  62  81 CALM      30.04R
SPENCER        PTCLDY    66  62  87 S6        30.04S
STORM LAKE *   CLEAR     64  63  94 SW3       30.05F
$$

IAZ055>058-069>071-079>083-090>094-010300-
   SOUTHWEST IOWA

CITY           SKY/WX    TMP DP  RH WIND       PRES   REMARKS
ATLANTIC *     CLOUDY    68  63  83 N5        30.04R
AUDUBON *      PTCLDY    68  64  88 CALM      30.06R
CLARINDA *     CLEAR     68  63  83 CALM      30.04S
COUNCIL BLFS *   N/A     72  63  73 E9        30.02R
CRESTON *      MOCLDY    68  63  83 E5        30.05S HAZE
HARLAN  *      CLOUDY    68  64  88 NE5       30.07S
LAMONI         CLEAR     75  55  49 S3        30.04F
RED OAK *      MOCLDY    72  61  68 SE3       30.02S
SHENANDOAH *   MOCLDY    70  61  73 SE7       30.02F
$$

IAZ047>049-059>061-072>074-084-010300-
   CENTRAL IOWA

CITY           SKY/WX    TMP DP  RH WIND       PRES   REMARKS
AMES           MOCLDY    69  60  73 W5        30.04S
ANKENY *       CLOUDY    68  63  83 CALM      30.04S
CHARITON *     MOCLDY    72  59  64 N5        30.04F
DES MOINES     CLOUDY    71  63  75 CALM      30.03F
GRINNELL*      MOCLDY    72  63  73 SW5       30.05R
KNOXVILLE *    CLOUDY    72  63  73 W6        30.03S
MARSHALLTOWN   PTCLDY    69  63  81 W3        30.03S
PELLA *        CLOUDY    71  64  76 CALM      30.05S
PERRY *          N/A     66  64  94 CALM      30.04F
$$

IAZ004>006-015-016-023>025-035-036-010300-
   NORTH CENTRAL IOWA

CITY           SKY/WX    TMP DP  RH WIND       PRES   REMARKS
ALGONA *       MOCLDY    72  64  78 SW5       30.05R
CLARION *      PTCLDY    68  63  83 SW5       30.04S
ESTHERVILLE    MOCLDY    66  62  87 SW5       30.04R
FORT DODGE *   PTCLDY    66  61  82 CALM      30.05S
MASON CITY     CLEAR     67  61  81 CALM      30.05R
FOREST CITY *  CLEAR     68  63  83 CALM      30.04R
IOWA FALLS *     N/A     66  61  82 SW5       30.05S
$$

IAZ007>011-017>019-026>030-037>042-050>054-066-010300-
   NORTHEAST IOWA

CITY           SKY/WX    TMP DP  RH WIND       PRES   REMARKS
CEDAR RAPIDS   CLEAR     69  62  78 CALM      30.03S
CHARLES CITY * CLEAR     66  63  88 CALM      30.04S
CLINTON *      CLEAR     66  63  88 SW3       30.07R
DECORAH *      CLEAR     66  57  72 CALM      30.03R
DUBUQUE        CLEAR     68  61  78 CALM      30.04S
MONTICELLO *   CLEAR     68  63  83 CALM      30.03S
OELWEIN *      MOCLDY    68  61  77 CALM      30.05R
WATERLOO       CLEAR     71  59  65 CALM      30.02R
$$

IAZ064-065-067-068-078-010300-
   EAST CENTRAL IOWA

CITY           SKY/WX    TMP DP  RH WIND       PRES   REMARKS
DAVENPORT      CLEAR     72  61  68 SW5       30.04S
IOWA CITY      CLEAR     69  63  81 CALM      30.04S
MT. PLEASANT * PTCLDY    70  62  75 CALM      30.04S
MUSCATINE *    CLEAR     72  64  78 CALM      30.04R
QUAD CITIES    PTCLDY    71  62  73 CALM      30.03S
$$

IAZ062-063-075>077-085>089-095>099-010300-
   SOUTHEAST IOWA

CITY           SKY/WX    TMP DP  RH WIND       PRES   REMARKS
BURLINGTON     CLEAR     68  64  87 CALM      30.04S FOG
FAIRFIELD *    MOCLDY    70  64  83 CALM      30.04F
FORT MADISON * CLEAR     70  64  83 CALM      30.06S
KEOKUK *       CLEAR     70  64  83 CALM      30.04S
OSKALOOSA *      N/A     72  66  83 CALM      30.05R
CENTERVILLE *  CLEAR     66  66 100 CALM      30.06F
OTTUMWA        MOCLDY    71  65  81 CALM      30.04S
WASHINGTON *   PTCLDY    72  64  78 CALM      30.04S
$$

ABBREVIATIONS USED IN REMARKS
   TC - TEMPERATURES IN CELSIUS
  WCI - WIND CHILL INDEX
   HX - HEAT INDEX
  VSB - VISIBILITY
$$




USA.gov is the U.S. government's official web portal to all federal, state and local government web resources and services.